Hourly Weather Kingston

Today, 22 June, Tuesday

Time Temperature Precipitation Wind Pressure Humidity
00:00 +26°C° 0 mm 2 mps 754 mmHg 84%
01:00 +26°C° 0 mm 2 mps 754 mmHg 86%
02:00 +26°C° 0 mm 2 mps 754 mmHg 86%
03:00 +26°C° 0 mm 2 mps 754 mmHg 86%
04:00 +26°C° 0 mm 2 mps 754 mmHg 86%
05:00 +27°C° 0 mm 2 mps 754 mmHg 82%
06:00 +27°C° 0 mm 2 mps 754 mmHg 78%
07:00 +28°C° 0 mm 3 mps 754 mmHg 74%
08:00 +31°C° 0 mm 3 mps 755 mmHg 65%
09:00 +34°C° 0 mm 4 mps 755 mmHg 56%
10:00 +36°C° 0 mm 5 mps 755 mmHg 47%
11:00 +36°C° 0 mm 5 mps 754 mmHg 47%
12:00 +36°C° 0 mm 5 mps 754 mmHg 47%
13:00 +36°C° 0 mm 6 mps 754 mmHg 47%
14:00 +35°C° 0.3 mm 5 mps 753 mmHg 51%
15:00 +34°C° 0.3 mm 5 mps 753 mmHg 54%
16:00 +34°C° 0.3 mm 4 mps 753 mmHg 58%
17:00 +32°C° 0 mm 4 mps 753 mmHg 65%
18:00 +30°C° 0 mm 3 mps 753 mmHg 72%
19:00 +29°C° 0 mm 3 mps 754 mmHg 78%
20:00 +28°C° 0 mm 3 mps 754 mmHg 81%
21:00 +27°C° 0 mm 2 mps 754 mmHg 83%
22:00 +27°C° 0 mm 2 mps 755 mmHg 85%
23:00 +26°C° 0 mm 2 mps 754 mmHg 86%

Tomorrow, 23 June, Wednesday

Time Temperature Precipitation Wind Pressure Humidity
00:00 +26°C° 0 mm 2 mps 754 mmHg 87%
01:00 +26°C° 0 mm 2 mps 754 mmHg 88%
02:00 +26°C° 0 mm 2 mps 754 mmHg 88%
03:00 +26°C° 0 mm 2 mps 754 mmHg 88%
04:00 +26°C° 0 mm 2 mps 753 mmHg 88%
05:00 +27°C° 0 mm 2 mps 754 mmHg 84%
06:00 +27°C° 0 mm 1 mps 754 mmHg 80%
07:00 +28°C° 0 mm 1 mps 754 mmHg 76%
08:00 +30°C° 0.1 mm 2 mps 754 mmHg 70%
09:00 +31°C° 0.1 mm 2 mps 754 mmHg 63%
10:00 +34°C° 0.1 mm 2 mps 755 mmHg 57%
11:00 +33°C° 1.1 mm 3 mps 754 mmHg 63%
12:00 +31°C° 1.1 mm 3 mps 754 mmHg 69%
13:00 +30°C° 1.1 mm 3 mps 754 mmHg 75%
14:00 +30°C° 0.5 mm 2 mps 754 mmHg 74%
15:00 +30°C° 0.5 mm 2 mps 753 mmHg 74%
16:00 +30°C° 0.5 mm 2 mps 753 mmHg 73%
17:00 +29°C° 0.4 mm 2 mps 753 mmHg 78%
18:00 +28°C° 0.4 mm 2 mps 754 mmHg 83%
19:00 +27°C° 0.4 mm 1 mps 754 mmHg 88%
20:00 +27°C° 0 mm 1 mps 754 mmHg 89%
21:00 +27°C° 0 mm 1 mps 754 mmHg 89%
22:00 +26°C° 0 mm 1 mps 754 mmHg 90%
23:00 +26°C° 0 mm 1 mps 754 mmHg 91%

Day after tomorrow, 24 June, Thursday

Time Temperature Precipitation Wind Pressure Humidity
00:00 +26°C° 0 mm 1 mps 753 mmHg 91%
01:00 +25°C° 0 mm 2 mps 753 mmHg 92%
02:00 +25°C° 0.1 mm 2 mps 753 mmHg 91%
03:00 +25°C° 0.1 mm 2 mps 753 mmHg 91%
04:00 +25°C° 0.1 mm 1 mps 753 mmHg 91%
05:00 +26°C° 0 mm 1 mps 753 mmHg 89%
06:00 +26°C° 0 mm 1 mps 753 mmHg 87%
07:00 +27°C° 0 mm 1 mps 753 mmHg 84%
08:00 +29°C° 0 mm 1 mps 753 mmHg 76%
09:00 +31°C° 0 mm 1 mps 753 mmHg 67%
10:00 +32°C° 0 mm 1 mps 753 mmHg 58%
11:00 +32°C° 0.8 mm 2 mps 753 mmHg 61%
12:00 +32°C° 0.8 mm 2 mps 753 mmHg 64%
13:00 +31°C° 0.8 mm 3 mps 753 mmHg 68%
14:00 +31°C° 1.2 mm 3 mps 752 mmHg 67%
15:00 +31°C° 1.2 mm 3 mps 752 mmHg 67%
16:00 +31°C° 1.2 mm 3 mps 752 mmHg 67%
17:00 +29°C° 0.2 mm 3 mps 752 mmHg 71%
18:00 +28°C° 0.2 mm 2 mps 753 mmHg 76%
19:00 +27°C° 0.2 mm 2 mps 753 mmHg 81%
20:00 +27°C° 0 mm 2 mps 753 mmHg 82%
21:00 +26°C° 0 mm 2 mps 753 mmHg 84%
22:00 +26°C° 0 mm 2 mps 753 mmHg 85%
23:00 +26°C° 0 mm 2 mps 753 mmHg 86%

25 June, Friday

Time Temperature Precipitation Wind Pressure Humidity
00:00 +25°C° 0 mm 2 mps 753 mmHg 87%
01:00 +25°C° 0 mm 2 mps 752 mmHg 87%
02:00 +25°C° 0 mm 2 mps 752 mmHg 88%
03:00 +25°C° 0 mm 2 mps 752 mmHg 88%
04:00 +25°C° 0 mm 2 mps 752 mmHg 88%
05:00 +25°C° 0.1 mm 1 mps 752 mmHg 85%
06:00 +26°C° 0.1 mm 1 mps 752 mmHg 83%
07:00 +27°C° 0.1 mm 1 mps 753 mmHg 81%
08:00 +29°C° 0 mm 2 mps 753 mmHg 71%
09:00 +31°C° 0 mm 2 mps 753 mmHg 62%
10:00 +34°C° 0 mm 2 mps 753 mmHg 52%
11:00 +34°C° 0 mm 3 mps 752 mmHg 54%
12:00 +33°C° 0 mm 3 mps 752 mmHg 56%
13:00 +33°C° 0 mm 4 mps 752 mmHg 58%
14:00 +33°C° 0.3 mm 3 mps 752 mmHg 61%
15:00 +31°C° 0.3 mm 3 mps 751 mmHg 63%
16:00 +31°C° 0.3 mm 2 mps 751 mmHg 66%
17:00 +29°C° 0.1 mm 2 mps 751 mmHg 71%
18:00 +28°C° 0.1 mm 2 mps 752 mmHg 76%
19:00 +27°C° 0.1 mm 2 mps 752 mmHg 82%
20:00 +27°C° 0.1 mm 2 mps 752 mmHg 84%
21:00 +26°C° 0.1 mm 2 mps 752 mmHg 85%
22:00 +26°C° 0.1 mm 2 mps 752 mmHg 87%
23:00 +26°C° 0.1 mm 1 mps 752 mmHg 87%

26 June, Saturday

Time Temperature Precipitation Wind Pressure Humidity
00:00 +25°C° 0.1 mm 1 mps 752 mmHg 88%
01:00 +25°C° 0.1 mm 1 mps 752 mmHg 88%
02:00 +25°C° 0 mm 1 mps 752 mmHg 88%
03:00 +25°C° 0 mm 1 mps 751 mmHg 88%
04:00 +25°C° 0 mm 2 mps 751 mmHg 88%
05:00 +25°C° 0 mm 2 mps 751 mmHg 85%
06:00 +26°C° 0 mm 1 mps 751 mmHg 82%
07:00 +27°C° 0 mm 1 mps 752 mmHg 79%
08:00 +29°C° 0 mm 2 mps 752 mmHg 71%
09:00 +31°C° 0 mm 2 mps 752 mmHg 62%
10:00 +33°C° 0 mm 3 mps 752 mmHg 54%
11:00 +34°C° 0 mm 3 mps 752 mmHg 54%
12:00 +34°C° 0 mm 4 mps 752 mmHg 53%
13:00 +34°C° 0 mm 4 mps 751 mmHg 53%
14:00 +34°C° 0.3 mm 4 mps 751 mmHg 57%
15:00 +33°C° 0.3 mm 4 mps 751 mmHg 61%
16:00 +31°C° 0.3 mm 3 mps 751 mmHg 65%
17:00 +30°C° 0.3 mm 3 mps 751 mmHg 72%
18:00 +29°C° 0.3 mm 2 mps 751 mmHg 79%
19:00 +27°C° 0.3 mm 2 mps 752 mmHg 86%
20:00 +27°C° 0.1 mm 2 mps 752 mmHg 87%
21:00 +26°C° 0.1 mm 2 mps 752 mmHg 88%
22:00 +26°C° 0.1 mm 2 mps 753 mmHg 90%
23:00 +26°C° 0 mm 2 mps 752 mmHg 90%

27 June, Sunday

Time Temperature Precipitation Wind Pressure Humidity
00:00 +25°C° 0 mm 2 mps 752 mmHg 91%
01:00 +25°C° 0 mm 2 mps 752 mmHg 92%
02:00 +25°C° 0 mm 2 mps 751 mmHg 92%
03:00 +25°C° 0 mm 2 mps 751 mmHg 92%
04:00 +25°C° 0 mm 2 mps 751 mmHg 92%
05:00 +25°C° 0 mm 2 mps 751 mmHg 89%
06:00 +26°C° 0 mm 2 mps 752 mmHg 87%
07:00 +27°C° 0 mm 2 mps 752 mmHg 84%
08:00 +29°C° 0.1 mm 2 mps 752 mmHg 74%
09:00 +31°C° 0.1 mm 3 mps 752 mmHg 65%
10:00 +34°C° 0.1 mm 3 mps 752 mmHg 55%
11:00 +34°C° 0.9 mm 3 mps 752 mmHg 58%
12:00 +34°C° 0.9 mm 4 mps 752 mmHg 62%
13:00 +33°C° 0.9 mm 4 mps 752 mmHg 65%
14:00 +30°C° 2.1 mm 4 mps 752 mmHg 73%
15:00 +29°C° 2.1 mm 4 mps 752 mmHg 80%
16:00 +27°C° 2.1 mm 4 mps 752 mmHg 88%
17:00 +27°C° 0.4 mm 3 mps 752 mmHg 89%
18:00 +26°C° 0.4 mm 2 mps 752 mmHg 90%
19:00 +26°C° 0.4 mm 2 mps 752 mmHg 91%
20:00 +26°C° 0.4 mm 2 mps 753 mmHg 92%
21:00 +26°C° 0.4 mm 2 mps 753 mmHg 93%
22:00 +26°C° 0.4 mm 3 mps 754 mmHg 94%
23:00 +26°C° 0.3 mm 2 mps 754 mmHg 94%
Show more

We Need Your Consent

Meteoprog and our Service Providers may store and access personal data such as cookies, device identifiers or other similar technologies on your device and process such data to personalise content and ads, as well as provide social media features and to analyse the traffic.

  • Store and/or access information on your device

    Cookies, device identifiers or other information can be stored or accessed on your device for the purposes indicated above.

  • Personalised ads and content, ad and content measurement, audience insights, and products development

    Ads and content can be personalised based on a profile. More data can be added to better personalise ads and content. Ad and content performance can be measured. Insights about the audience who saw the ads and content can be derived. Such data can be used to develop or improve user’s experience, systems and software.

By clicking ‘I Agree’ you will allow the use of indicated cookies, device identifiers, web beacons or other similar technologies. Your settings can be changed in the browser on your device.

For certain purposes, legitimate interests may be relied on, rather than consent. You can read more about this in our Privacy and Cookie Policy.